This is the latest recevied weather packets stored in our database for station/object KC9DRE. If no packets are shown the sender has not sent any weather packets the latest 10 day(s).
| Time | Temp. | Humidity | Pressure | Rain* | Wind** | Luminosity | Snow |
|---|---|---|---|---|---|---|---|
| 1788024577 | 31.11° C | 47% | 1021.8 hPa | 0 mm | - | 838 W/m² | - |
| 1788024276 | 31.11° C | 47% | 1021.9 hPa | 0 mm | - | 833 W/m² | - |
| 1788023972 | 30.56° C | 51% | 1022 hPa | 0 mm | - | 835 W/m² | - |
| 1788023667 | 30.56° C | 49% | 1022.2 hPa | 0 mm | - | 825 W/m² | - |
| 1788023364 | 31.11° C | 52% | 1022 hPa | 0 mm | - | 825 W/m² | - |
| 1788023063 | 31.67° C | 49% | 1022.1 hPa | 0 mm | - | 834 W/m² | - |
| 1788022761 | 31.11° C | 51% | 1022.3 hPa | 0 mm | - | 856 W/m² | - |
| 1788022460 | 30° C | 52% | 1022.2 hPa | 0 mm | - | 400 W/m² | - |
| 1788022155 | 28.89° C | 62% | 1022.2 hPa | 0 mm | - | 446 W/m² | - |
| 1788021854 | 27.78° C | 60% | 1022.3 hPa | 0 mm | - | 340 W/m² | - |
| 1788021553 | 27.78° C | 62% | 1022.3 hPa | 0 mm | - | 852 W/m² | - |
| 1788021252 | 27.78° C | 67% | 1022.3 hPa | 0 mm | - | 236 W/m² | - |
| 1788020947 | 28.89° C | 63% | 1022.4 hPa | 0 mm | - | 264 W/m² | - |
| 1788020642 | 30° C | 61% | 1022.4 hPa | 0 mm | - | 172 W/m² | - |
| 1788020338 | 31.11° C | 59% | 1022.5 hPa | 0 mm | - | 130 W/m² | - |
| 1788020034 | 31.11° C | 55% | 1022.5 hPa | 0 mm | - | 417 W/m² | - |
| 1788019733 | 31.11° C | 52% | 1022.4 hPa | 0 mm | - | 776 W/m² | - |
| 1788019434 | 31.67° C | 53% | 1022.6 hPa | 0 mm | - | 737 W/m² | - |
| 1788019131 | 31.11° C | 57% | 1022.4 hPa | 0 mm | - | 705 W/m² | - |
| 1788018831 | 31.11° C | 55% | 1022.3 hPa | 0 mm | - | 715 W/m² | - |
| 1788018526 | 30.56° C | 56% | 1022.3 hPa | 0 mm | - | 695 W/m² | - |
| 1788018225 | 30° C | 62% | 1022.4 hPa | 0 mm | - | 692 W/m² | - |
| 1788017921 | 28.89° C | 62% | 1022.5 hPa | 0 mm | - | 679 W/m² | - |
| 1788017617 | 28.33° C | 61% | 1022.3 hPa | 0 mm | - | 669 W/m² | - |
| 1788017314 | 28.89° C | 60% | 1022.5 hPa | 0 mm | - | 658 W/m² | - |
* Rain latest hour (hover to see other rain measurements)
** Current wind speed in m/s (hover to see current wind gust speed)